Time,TemperatureF,DewpointF,PressureIn,WindDirection,WindDirectionDegrees,WindSpeedMPH,WindSpeedGustMPH,Humidity,HourlyPrecipIn,Conditions,Clouds,dailyrainin,SoftwareType,DateUTC
2013-08-26 00:02:00,82.9,57.6,29.82,East,88,0.0,0.0,42,0.00,,,0.00,meteohub,2013-08-26 06:02:00,
2013-08-26 00:07:00,82.8,57.4,29.82,ESE,107,0.0,0.0,42,0.00,,,0.00,meteohub,2013-08-26 06:07:00,
2013-08-26 00:12:00,82.6,57.2,29.82,East,97,0.0,0.0,42,0.00,,,0.00,meteohub,2013-08-26 06:12:00,
2013-08-26 00:17:00,82.6,57.2,29.81,ESE,103,0.0,0.0,42,0.00,,,0.00,meteohub,2013-08-26 06:17:00,
2013-08-26 00:22:00,82.4,57.0,29.82,East,95,0.0,0.0,42,0.00,,,0.00,meteohub,2013-08-26 06:22:00,
2013-08-26 00:27:00,82.2,56.8,29.82,East,99,0.0,0.0,42,0.00,,,0.00,meteohub,2013-08-26 06:27:00,
2013-08-26 00:33:00,82.2,56.8,29.82,East,82,0.0,0.0,42,0.00,,,0.00,meteohub,2013-08-26 06:33:00,
2013-08-26 00:38:00,82.2,56.1,29.82,SE,129,0.0,0.0,41,0.00,,,0.00,meteohub,2013-08-26 06:38:00,
2013-08-26 00:43:00,82.2,56.1,29.82,East,87,0.0,0.0,41,0.00,,,0.00,meteohub,2013-08-26 06:43:00,
2013-08-26 00:48:00,82.2,56.1,29.82,East,94,0.0,0.0,41,0.00,,,0.00,meteohub,2013-08-26 06:48:00,
2013-08-26 00:53:00,82.2,56.1,29.82,East,90,0.0,0.0,41,0.00,,,0.00,meteohub,2013-08-26 06:53:00,
2013-08-26 00:58:00,82.2,56.1,29.82,East,82,0.0,0.0,41,0.00,,,0.00,meteohub,2013-08-26 06:58:00,
2013-08-26 01:04:00,82.0,55.9,29.81,East,91,0.0,0.0,41,0.00,,,0.00,meteohub,2013-08-26 07:04:00,
2013-08-26 01:09:00,82.0,55.9,29.82,East,92,0.0,0.0,41,0.00,,,0.00,meteohub,2013-08-26 07:09:00,
2013-08-26 01:14:00,81.9,55.9,29.81,East,97,0.0,0.0,41,0.00,,,0.00,meteohub,2013-08-26 07:14:00,
2013-08-26 01:19:00,81.9,55.9,29.82,East,80,0.0,0.0,41,0.00,,,0.00,meteohub,2013-08-26 07:19:00,
2013-08-26 01:24:00,81.7,56.3,29.81,East,83,0.0,0.0,42,0.00,,,0.00,meteohub,2013-08-26 07:24:00,
2013-08-26 01:29:00,81.7,56.3,29.81,East,88,0.0,0.0,42,0.00,,,0.00,meteohub,2013-08-26 07:29:00,
2013-08-26 01:35:00,81.5,56.1,29.81,East,84,0.0,0.0,42,0.00,,,0.00,meteohub,2013-08-26 07:35:00,
2013-08-26 01:40:00,81.3,56.1,29.81,SE,132,0.0,0.0,42,0.00,,,0.00,meteohub,2013-08-26 07:40:00,
2013-08-26 01:45:00,81.3,56.1,29.81,East,97,0.0,0.0,42,0.00,,,0.00,meteohub,2013-08-26 07:45:00,
2013-08-26 01:50:00,81.3,56.1,29.81,East,81,0.0,0.0,42,0.00,,,0.00,meteohub,2013-08-26 07:50:00,
2013-08-26 01:55:00,81.3,56.1,29.81,South,169,0.0,0.0,42,0.00,,,0.00,meteohub,2013-08-26 07:55:00,
2013-08-26 02:00:00,81.1,55.2,29.81,ESE,118,0.0,0.0,41,0.00,,,0.00,meteohub,2013-08-26 08:00:00,
2013-08-26 02:06:00,81.0,55.8,29.81,ESE,118,0.0,0.0,42,0.00,,,0.00,meteohub,2013-08-26 08:06:00,
2013-08-26 02:11:00,80.8,56.1,29.81,ESE,118,0.0,0.0,43,0.00,,,0.00,meteohub,2013-08-26 08:11:00,
2013-08-26 02:16:00,80.2,55.8,29.81,ESE,118,0.0,0.0,43,0.00,,,0.00,meteohub,2013-08-26 08:16:00,
2013-08-26 02:21:00,79.9,55.9,29.81,ESE,119,0.0,0.0,44,0.00,,,0.00,meteohub,2013-08-26 08:21:00,
2013-08-26 02:26:00,79.9,55.9,29.81,East,99,0.0,0.0,44,0.00,,,0.00,meteohub,2013-08-26 08:26:00,
2013-08-26 02:31:00,79.9,55.9,29.81,East,100,0.0,0.0,44,0.00,,,0.00,meteohub,2013-08-26 08:31:00,
2013-08-26 02:36:00,79.9,55.9,29.81,East,94,0.0,0.0,44,0.00,,,0.00,meteohub,2013-08-26 08:36:00,
2013-08-26 02:42:00,79.9,55.9,29.81,ESE,107,0.0,0.0,44,0.00,,,0.00,meteohub,2013-08-26 08:42:00,
2013-08-26 02:47:00,79.7,55.9,29.81,ESE,105,0.0,0.0,44,0.00,,,0.00,meteohub,2013-08-26 08:47:00,
2013-08-26 02:52:00,79.5,55.8,29.81,ESE,108,0.0,0.0,44,0.00,,,0.00,meteohub,2013-08-26 08:52:00,
2013-08-26 02:57:00,79.3,55.6,29.81,ESE,103,0.0,0.0,44,0.00,,,0.00,meteohub,2013-08-26 08:57:00,
2013-08-26 03:02:00,79.3,55.6,29.81,ESE,105,0.0,0.0,44,0.00,,,0.00,meteohub,2013-08-26 09:02:00,
2013-08-26 03:07:00,79.3,56.1,29.81,East,98,0.0,0.0,45,0.00,,,0.00,meteohub,2013-08-26 09:07:00,
2013-08-26 03:12:00,79.3,56.1,29.81,ESE,117,0.0,0.0,45,0.00,,,0.00,meteohub,2013-08-26 09:12:00,
2013-08-26 03:18:00,79.3,56.1,29.81,ESE,108,0.0,0.0,45,0.00,,,0.00,meteohub,2013-08-26 09:18:00,
2013-08-26 03:23:00,79.2,55.9,29.81,ESE,109,0.0,0.0,45,0.00,,,0.00,meteohub,2013-08-26 09:23:00,
2013-08-26 03:28:00,79.0,55.8,29.81,ESE,109,0.0,0.0,45,0.00,,,0.00,meteohub,2013-08-26 09:28:00,
2013-08-26 03:33:00,78.8,55.6,29.81,ESE,111,0.0,0.0,45,0.00,,,0.00,meteohub,2013-08-26 09:33:00,
2013-08-26 03:38:00,78.6,56.1,29.81,ENE,78,0.0,0.0,46,0.00,,,0.00,meteohub,2013-08-26 09:38:00,
2013-08-26 03:43:00,78.6,56.1,29.81,East,92,0.0,0.0,46,0.00,,,0.00,meteohub,2013-08-26 09:43:00,
2013-08-26 03:49:00,78.6,56.1,29.81,East,92,0.0,0.0,46,0.00,,,0.00,meteohub,2013-08-26 09:49:00,
2013-08-26 03:54:00,78.4,55.9,29.81,East,92,0.0,0.0,46,0.00,,,0.00,meteohub,2013-08-26 09:54:00,
2013-08-26 03:59:00,78.3,56.3,29.81,East,92,0.0,0.0,47,0.00,,,0.00,meteohub,2013-08-26 09:59:00,
2013-08-26 04:04:00,77.9,56.1,29.81,East,92,0.0,0.0,47,0.00,,,0.00,meteohub,2013-08-26 10:04:00,
2013-08-26 04:09:00,77.5,55.8,29.81,East,98,0.0,0.0,47,0.00,,,0.00,meteohub,2013-08-26 10:09:00,
2013-08-26 04:14:00,77.7,55.9,29.81,ESE,106,0.0,0.0,47,0.00,,,0.00,meteohub,2013-08-26 10:14:00,
2013-08-26 04:20:00,78.3,56.3,29.81,ESE,110,0.0,0.0,47,0.00,,,0.00,meteohub,2013-08-26 10:20:00,
2013-08-26 04:25:00,78.3,56.3,29.81,ESE,110,0.0,0.0,47,0.00,,,0.00,meteohub,2013-08-26 10:25:00,
2013-08-26 04:30:00,78.3,56.3,29.81,ESE,111,0.0,0.0,47,0.00,,,0.00,meteohub,2013-08-26 10:30:00,
2013-08-26 04:35:00,77.9,56.7,29.81,ESE,111,0.0,0.0,48,0.00,,,0.00,meteohub,2013-08-26 10:35:00,
2013-08-26 04:40:00,77.5,56.3,29.81,ESE,111,0.0,0.0,48,0.00,,,0.00,meteohub,2013-08-26 10:40:00,
2013-08-26 04:45:00,77.4,56.1,29.81,East,94,0.0,0.0,48,0.00,,,0.00,meteohub,2013-08-26 10:45:00,
2013-08-26 04:51:00,77.4,56.7,29.81,ESE,105,0.0,0.0,49,0.00,,,0.00,meteohub,2013-08-26 10:51:00,
2013-08-26 04:56:00,77.5,56.8,29.81,East,87,0.0,0.0,49,0.00,,,0.00,meteohub,2013-08-26 10:56:00,
2013-08-26 05:01:00,77.5,56.3,29.81,East,96,0.0,0.0,48,0.00,,,0.00,meteohub,2013-08-26 11:01:00,
2013-08-26 05:06:00,77.5,56.8,29.82,East,98,0.0,0.0,49,0.00,,,0.00,meteohub,2013-08-26 11:06:00,
2013-08-26 05:11:00,77.5,56.3,29.82,East,88,0.0,0.0,48,0.00,,,0.00,meteohub,2013-08-26 11:11:00,
2013-08-26 05:17:00,77.5,56.3,29.82,East,101,0.0,0.0,48,0.00,,,0.00,meteohub,2013-08-26 11:17:00,
2013-08-26 05:22:00,77.5,56.3,29.82,ESE,119,0.0,0.0,48,0.00,,,0.00,meteohub,2013-08-26 11:22:00,
2013-08-26 05:27:00,77.5,56.3,29.82,ESE,114,0.0,0.0,48,0.00,,,0.00,meteohub,2013-08-26 11:27:00,
2013-08-26 05:32:00,77.5,56.3,29.82,East,94,0.0,0.0,48,0.00,,,0.00,meteohub,2013-08-26 11:32:00,
2013-08-26 05:37:00,77.4,55.6,29.82,East,99,0.0,0.0,47,0.00,,,0.00,meteohub,2013-08-26 11:37:00,
2013-08-26 05:42:00,77.4,55.6,29.82,East,101,0.0,0.0,47,0.00,,,0.00,meteohub,2013-08-26 11:42:00,
2013-08-26 05:48:00,77.2,55.9,29.82,East,101,0.0,0.0,48,0.00,,,0.00,meteohub,2013-08-26 11:48:00,
2013-08-26 05:53:00,77.2,55.9,29.82,East,101,0.0,0.0,48,0.00,,,0.00,meteohub,2013-08-26 11:53:00,
2013-08-26 05:58:00,77.0,56.3,29.82,East,83,0.0,0.0,49,0.00,,,0.00,meteohub,2013-08-26 11:58:00,
2013-08-26 06:03:00,76.8,56.3,29.83,East,84,0.0,0.0,49,0.00,,,0.00,meteohub,2013-08-26 12:03:00,
2013-08-26 06:08:00,76.8,56.3,29.83,East,84,0.0,0.0,49,0.00,,,0.00,meteohub,2013-08-26 12:08:00,
2013-08-26 06:14:00,76.6,56.1,29.83,East,84,0.0,0.0,49,0.00,,,0.00,meteohub,2013-08-26 12:14:00,
2013-08-26 06:19:00,76.8,56.3,29.82,ESE,103,0.0,0.0,49,0.00,,,0.00,meteohub,2013-08-26 12:19:00,
2013-08-26 06:24:00,76.8,55.6,29.83,East,99,0.0,0.0,48,0.00,,,0.00,meteohub,2013-08-26 12:24:00,
2013-08-26 06:29:00,77.0,55.8,29.83,ESE,102,0.0,0.0,48,0.00,,,0.00,meteohub,2013-08-26 12:29:00,
2013-08-26 06:34:00,77.0,56.3,29.83,ESE,113,0.0,0.0,49,0.00,,,0.00,meteohub,2013-08-26 12:34:00,
2013-08-26 06:40:00,77.0,55.8,29.83,East,101,0.0,0.0,48,0.00,,,0.00,meteohub,2013-08-26 12:40:00,
2013-08-26 06:45:00,77.0,55.8,29.83,ESE,108,0.0,0.0,48,0.00,,,0.00,meteohub,2013-08-26 12:45:00,
2013-08-26 06:50:00,77.0,55.8,29.83,ESE,106,0.0,0.0,48,0.00,,,0.00,meteohub,2013-08-26 12:50:00,
2013-08-26 06:55:00,76.8,55.6,29.83,East,98,0.0,0.0,48,0.00,,,0.00,meteohub,2013-08-26 12:55:00,
2013-08-26 07:00:00,76.8,56.3,29.83,East,99,0.0,0.0,49,0.00,,,0.00,meteohub,2013-08-26 13:00:00,
2013-08-26 07:05:00,76.8,56.3,29.84,ESE,102,0.0,0.0,49,0.00,,,0.00,meteohub,2013-08-26 13:05:00,
2013-08-26 07:10:00,77.2,56.5,29.83,East,91,0.0,0.0,49,0.00,,,0.00,meteohub,2013-08-26 13:10:00,
2013-08-26 07:16:00,77.4,56.1,29.84,ESE,103,0.0,0.0,48,0.00,,,0.00,meteohub,2013-08-26 13:16:00,
2013-08-26 07:21:00,77.5,56.3,29.84,East,92,0.0,0.0,48,0.00,,,0.00,meteohub,2013-08-26 13:21:00,
2013-08-26 07:26:00,77.9,56.7,29.84,ESE,112,0.0,0.0,48,0.00,,,0.00,meteohub,2013-08-26 13:26:00,
2013-08-26 07:31:00,78.3,57.0,29.84,ESE,105,0.0,0.0,48,0.00,,,0.00,meteohub,2013-08-26 13:31:00,
2013-08-26 07:36:00,78.4,56.5,29.85,East,86,0.0,0.0,47,0.00,,,0.00,meteohub,2013-08-26 13:36:00,
2013-08-26 07:41:00,78.8,56.8,29.85,ESE,111,0.0,0.0,47,0.00,,,0.00,meteohub,2013-08-26 13:41:00,
2013-08-26 07:47:00,79.2,56.7,29.85,East,93,0.0,0.0,46,0.00,,,0.00,meteohub,2013-08-26 13:47:00,
2013-08-26 07:52:00,79.5,56.8,29.85,East,101,0.0,0.0,46,0.00,,,0.00,meteohub,2013-08-26 13:52:00,
2013-08-26 07:57:00,79.7,57.0,29.85,ESE,102,0.0,0.0,46,0.00,,,0.00,meteohub,2013-08-26 13:57:00,
2013-08-26 08:02:00,79.5,56.8,29.85,ESE,103,0.0,0.0,46,0.00,,,0.00,meteohub,2013-08-26 14:02:00,
2013-08-26 08:07:00,79.5,56.8,29.85,SE,126,0.0,0.0,46,0.00,,,0.00,meteohub,2013-08-26 14:07:00,
2013-08-26 08:12:00,79.7,57.0,29.85,South,172,0.0,0.0,46,0.00,,,0.00,meteohub,2013-08-26 14:12:00,
2013-08-26 08:17:00,80.2,57.0,29.86,ESE,102,0.0,0.0,45,0.00,,,0.00,meteohub,2013-08-26 14:17:00,
2013-08-26 08:22:00,80.8,57.4,29.85,ESE,108,0.0,0.0,45,0.00,,,0.00,meteohub,2013-08-26 14:22:00,
2013-08-26 08:27:00,81.1,57.7,29.86,East,100,0.0,0.0,45,0.00,,,0.00,meteohub,2013-08-26 14:27:00,
2013-08-26 08:32:00,81.7,57.6,29.86,East,86,0.0,0.0,44,0.00,,,0.00,meteohub,2013-08-26 14:32:00,
2013-08-26 08:37:00,81.9,57.2,29.86,South,190,0.0,0.0,43,0.00,,,0.00,meteohub,2013-08-26 14:37:00,
2013-08-26 08:43:00,81.9,57.2,29.86,East,99,0.0,0.0,43,0.00,,,0.00,meteohub,2013-08-26 14:43:00,
2013-08-26 08:48:00,82.2,57.6,29.86,ESE,119,0.0,0.0,43,0.00,,,0.00,meteohub,2013-08-26 14:48:00,
2013-08-26 08:53:00,82.4,57.7,29.86,ESE,108,0.0,0.0,43,0.00,,,0.00,meteohub,2013-08-26 14:53:00,
2013-08-26 08:58:00,82.6,57.7,29.86,SE,125,0.0,0.0,43,0.00,,,0.00,meteohub,2013-08-26 14:58:00,
2013-08-26 09:03:00,82.8,57.9,29.86,ESE,107,0.0,0.0,43,0.00,,,0.00,meteohub,2013-08-26 15:03:00,
2013-08-26 09:08:00,82.9,58.1,29.86,East,97,0.0,0.0,43,0.00,,,0.00,meteohub,2013-08-26 15:08:00,
2013-08-26 09:13:00,82.9,58.1,29.86,East,86,0.0,0.0,43,0.00,,,0.00,meteohub,2013-08-26 15:13:00,
2013-08-26 09:19:00,83.1,57.6,29.86,ESE,108,0.0,0.0,42,0.00,,,0.00,meteohub,2013-08-26 15:19:00,
2013-08-26 09:24:00,83.3,57.7,29.86,ENE,78,0.0,0.0,42,0.00,,,0.00,meteohub,2013-08-26 15:24:00,
2013-08-26 09:29:00,83.7,58.1,29.86,ENE,69,0.0,0.0,42,0.00,,,0.00,meteohub,2013-08-26 15:29:00,
2013-08-26 09:34:00,84.0,57.7,29.86,East,88,0.0,0.0,41,0.00,,,0.00,meteohub,2013-08-26 15:34:00,
2013-08-26 09:39:00,84.2,57.9,29.86,ENE,74,0.0,0.0,41,0.00,,,0.00,meteohub,2013-08-26 15:39:00,
2013-08-26 09:44:00,84.2,57.9,29.86,SSW,204,0.0,0.0,41,0.00,,,0.00,meteohub,2013-08-26 15:44:00,
2013-08-26 09:49:00,84.4,58.1,29.86,East,94,0.0,0.0,41,0.00,,,0.00,meteohub,2013-08-26 15:49:00,
2013-08-26 09:55:00,84.6,59.0,29.86,ESE,103,0.0,0.0,42,0.00,,,0.00,meteohub,2013-08-26 15:55:00,
2013-08-26 10:00:00,84.6,59.0,29.86,SSW,210,0.0,0.0,42,0.00,,,0.00,meteohub,2013-08-26 16:00:00,
2013-08-26 10:05:00,84.6,57.6,29.86,ESE,108,0.0,0.0,40,0.00,,,0.00,meteohub,2013-08-26 16:05:00,
2013-08-26 10:10:00,84.6,57.6,29.86,ESE,123,0.0,0.0,40,0.00,,,0.00,meteohub,2013-08-26 16:10:00,
2013-08-26 10:15:00,84.6,58.3,29.86,ESE,115,0.0,0.0,41,0.00,,,0.00,meteohub,2013-08-26 16:15:00,
2013-08-26 10:20:00,84.7,57.7,29.86,ESE,117,0.0,0.0,40,0.00,,,0.00,meteohub,2013-08-26 16:20:00,
2013-08-26 10:25:00,84.9,57.9,29.87,East,98,0.0,0.0,40,0.00,,,0.00,meteohub,2013-08-26 16:25:00,
2013-08-26 10:31:00,85.1,58.1,29.86,ESE,109,0.0,0.0,40,0.00,,,0.00,meteohub,2013-08-26 16:31:00,
2013-08-26 10:36:00,85.3,57.6,29.86,SSW,202,0.0,0.0,39,0.00,,,0.00,meteohub,2013-08-26 16:36:00,
2013-08-26 10:41:00,85.6,58.5,29.86,NNW,328,0.0,0.0,40,0.00,,,0.00,meteohub,2013-08-26 16:41:00,
2013-08-26 10:46:00,85.5,58.5,29.86,SW,223,0.0,0.0,40,0.00,,,0.00,meteohub,2013-08-26 16:46:00,
2013-08-26 10:51:00,85.3,58.3,29.86,SSW,210,0.0,0.0,40,0.00,,,0.00,meteohub,2013-08-26 16:51:00,
2013-08-26 10:56:00,85.5,57.7,29.86,SSW,206,0.0,0.0,39,0.00,,,0.00,meteohub,2013-08-26 16:56:00,
2013-08-26 11:02:00,85.8,58.6,29.86,East,87,0.0,0.0,40,0.00,,,0.00,meteohub,2013-08-26 17:02:00,
2013-08-26 11:07:00,86.2,58.3,29.85,ESE,113,0.0,0.0,39,0.00,,,0.00,meteohub,2013-08-26 17:07:00,
2013-08-26 11:12:00,86.2,57.6,29.85,ESE,103,0.0,0.0,38,0.00,,,0.00,meteohub,2013-08-26 17:12:00,
2013-08-26 11:17:00,86.4,58.5,29.85,SE,132,0.0,0.0,39,0.00,,,0.00,meteohub,2013-08-26 17:17:00,
2013-08-26 11:22:00,86.9,59.0,29.85,East,84,0.0,0.0,39,0.00,,,0.00,meteohub,2013-08-26 17:22:00,
2013-08-26 11:27:00,87.1,58.5,29.85,SSE,161,0.0,0.0,38,0.00,,,0.00,meteohub,2013-08-26 17:27:00,
2013-08-26 11:32:00,87.4,57.9,29.84,East,80,0.0,0.0,37,0.00,,,0.00,meteohub,2013-08-26 17:32:00,
2013-08-26 11:38:00,87.6,58.1,29.84,ESE,107,0.0,0.0,37,0.00,,,0.00,meteohub,2013-08-26 17:38:00,
2013-08-26 11:43:00,88.0,58.5,29.84,East,80,0.0,0.0,37,0.00,,,0.00,meteohub,2013-08-26 17:43:00,
2013-08-26 11:48:00,88.2,58.6,29.84,ENE,70,0.0,0.0,37,0.00,,,0.00,meteohub,2013-08-26 17:48:00,
2013-08-26 11:53:00,88.2,58.6,29.84,ESE,105,0.0,0.0,37,0.00,,,0.00,meteohub,2013-08-26 17:53:00,
2013-08-26 11:58:00,88.3,57.2,29.84,ESE,113,0.0,0.0,35,0.00,,,0.00,meteohub,2013-08-26 17:58:00,
2013-08-26 12:03:00,88.3,57.2,29.83,ENE,78,0.0,0.0,35,0.00,,,0.00,meteohub,2013-08-26 18:03:00,
2013-08-26 12:08:00,88.3,57.9,29.83,ESE,106,0.0,0.0,36,0.00,,,0.00,meteohub,2013-08-26 18:08:00,
2013-08-26 12:14:00,88.5,58.1,29.83,ESE,109,0.0,0.0,36,0.00,,,0.00,meteohub,2013-08-26 18:14:00,
2013-08-26 12:19:00,88.2,57.9,29.83,East,94,0.0,0.0,36,0.00,,,0.00,meteohub,2013-08-26 18:19:00,
2013-08-26 12:24:00,88.2,57.9,29.82,ESE,102,0.0,0.0,36,0.00,,,0.00,meteohub,2013-08-26 18:24:00,
2013-08-26 12:29:00,88.9,57.7,29.82,East,90,0.0,0.0,35,0.00,,,0.00,meteohub,2013-08-26 18:29:00,
2013-08-26 12:34:00,89.2,57.2,29.82,East,97,0.0,0.0,34,0.00,,,0.00,meteohub,2013-08-26 18:34:00,
2013-08-26 12:39:00,89.4,57.4,29.82,ENE,72,0.0,0.0,34,0.00,,,0.00,meteohub,2013-08-26 18:39:00,
2013-08-26 12:45:00,90.0,57.7,29.82,East,101,0.0,0.0,34,0.00,,,0.00,meteohub,2013-08-26 18:45:00,
2013-08-26 12:50:00,90.0,57.0,29.81,East,82,0.0,0.0,33,0.00,,,0.00,meteohub,2013-08-26 18:50:00,
2013-08-26 12:55:00,90.3,57.4,29.81,ESE,112,0.0,0.0,33,0.00,,,0.00,meteohub,2013-08-26 18:55:00,
2013-08-26 13:00:00,90.3,57.4,29.81,ESE,123,0.0,0.0,33,0.00,,,0.00,meteohub,2013-08-26 19:00:00,
2013-08-26 13:05:00,90.3,56.5,29.81,East,92,0.0,0.0,32,0.00,,,0.00,meteohub,2013-08-26 19:05:00,
2013-08-26 13:10:00,90.3,56.5,29.81,ESE,119,0.0,0.0,32,0.00,,,0.00,meteohub,2013-08-26 19:10:00,
2013-08-26 13:15:00,90.0,57.0,29.80,East,93,0.0,0.0,33,0.00,,,0.00,meteohub,2013-08-26 19:15:00,
2013-08-26 13:21:00,90.1,56.3,29.80,ESE,109,0.0,0.0,32,0.00,,,0.00,meteohub,2013-08-26 19:21:00,
2013-08-26 13:26:00,90.5,55.8,29.80,East,90,0.0,0.0,31,0.00,,,0.00,meteohub,2013-08-26 19:26:00,
2013-08-26 13:31:00,90.3,55.6,29.80,East,90,0.0,0.0,31,0.00,,,0.00,meteohub,2013-08-26 19:31:00,
2013-08-26 13:36:00,90.7,56.8,29.80,ESE,103,0.0,0.0,32,0.00,,,0.00,meteohub,2013-08-26 19:36:00,
2013-08-26 13:41:00,90.7,55.9,29.80,East,92,0.0,0.0,31,0.00,,,0.00,meteohub,2013-08-26 19:41:00,
2013-08-26 13:46:00,90.7,55.9,29.80,ESE,105,0.0,0.0,31,0.00,,,0.00,meteohub,2013-08-26 19:46:00,
2013-08-26 13:51:00,91.0,56.1,29.79,East,100,0.0,0.0,31,0.00,,,0.00,meteohub,2013-08-26 19:51:00,
2013-08-26 13:57:00,91.6,56.7,29.79,East,98,0.0,0.0,31,0.00,,,0.00,meteohub,2013-08-26 19:57:00,
2013-08-26 14:02:00,91.8,55.9,29.78,East,88,0.0,0.0,30,0.00,,,0.00,meteohub,2013-08-26 20:02:00,
2013-08-26 14:07:00,91.6,55.8,29.78,ESE,106,0.0,0.0,30,0.00,,,0.00,meteohub,2013-08-26 20:07:00,
2013-08-26 14:12:00,90.9,56.1,29.78,East,95,0.0,0.0,31,0.00,,,0.00,meteohub,2013-08-26 20:12:00,
2013-08-26 14:17:00,90.1,55.4,29.78,ESE,109,0.0,0.0,31,0.00,,,0.00,meteohub,2013-08-26 20:17:00,
2013-08-26 14:22:00,90.5,55.8,29.78,East,90,0.0,0.0,31,0.00,,,0.00,meteohub,2013-08-26 20:22:00,
2013-08-26 14:27:00,91.4,55.6,29.78,East,101,0.0,0.0,30,0.00,,,0.00,meteohub,2013-08-26 20:27:00,
2013-08-26 14:32:00,91.9,55.2,29.77,ESE,106,0.0,0.0,29,0.00,,,0.00,meteohub,2013-08-26 20:32:00,
2013-08-26 14:37:00,92.5,55.6,29.78,East,91,0.0,0.0,29,0.00,,,0.00,meteohub,2013-08-26 20:37:00,
2013-08-26 14:42:00,92.1,54.3,29.77,East,99,0.0,0.0,28,0.00,,,0.00,meteohub,2013-08-26 20:42:00,
2013-08-26 14:47:00,92.5,55.6,29.77,ESE,109,0.0,0.0,29,0.00,,,0.00,meteohub,2013-08-26 20:47:00,
2013-08-26 14:52:00,92.5,54.7,29.77,ENE,75,0.0,0.0,28,0.00,,,0.00,meteohub,2013-08-26 20:52:00,
2013-08-26 14:57:00,92.7,55.8,29.76,East,84,0.0,0.0,29,0.00,,,0.00,meteohub,2013-08-26 20:57:00,
2013-08-26 15:02:00,93.0,55.0,29.76,East,86,0.0,0.0,28,0.00,,,0.00,meteohub,2013-08-26 21:02:00,
2013-08-26 15:07:00,92.5,54.7,29.76,SSW,200,0.0,0.0,28,0.00,,,0.00,meteohub,2013-08-26 21:07:00,
2013-08-26 15:12:00,92.3,54.5,29.76,ESE,111,0.0,0.0,28,0.00,,,0.00,meteohub,2013-08-26 21:12:00,
2013-08-26 15:17:00,92.5,55.6,29.75,SSW,192,0.0,0.0,29,0.00,,,0.00,meteohub,2013-08-26 21:17:00,
2013-08-26 15:22:00,93.0,55.0,29.75,ESE,103,0.0,0.0,28,0.00,,,0.00,meteohub,2013-08-26 21:22:00,
2013-08-26 15:27:00,93.6,54.5,29.75,ESE,106,0.0,0.0,27,0.00,,,0.00,meteohub,2013-08-26 21:27:00,
2013-08-26 15:32:00,93.9,54.9,29.75,SE,132,0.0,0.0,27,0.00,,,0.00,meteohub,2013-08-26 21:32:00,
2013-08-26 15:37:00,94.3,54.1,29.75,East,92,0.0,0.0,26,0.00,,,0.00,meteohub,2013-08-26 21:37:00,
2013-08-26 15:42:00,94.3,55.2,29.75,SSW,207,0.0,0.0,27,0.00,,,0.00,meteohub,2013-08-26 21:42:00,
2013-08-26 15:47:00,94.3,54.1,29.74,WSW,250,0.0,0.0,26,0.00,,,0.00,meteohub,2013-08-26 21:47:00,
2013-08-26 15:52:00,94.5,52.2,29.74,East,95,0.0,0.0,24,0.00,,,0.00,meteohub,2013-08-26 21:52:00,
2013-08-26 15:57:00,93.7,52.5,29.74,ENE,68,0.0,0.0,25,0.00,,,0.00,meteohub,2013-08-26 21:57:00,
2013-08-26 16:02:00,92.8,50.7,29.74,East,82,0.0,0.0,24,0.00,,,0.00,meteohub,2013-08-26 22:02:00,
2013-08-26 16:07:00,93.0,50.9,29.74,East,90,0.0,0.0,24,0.00,,,0.00,meteohub,2013-08-26 22:07:00,
2013-08-26 16:12:00,92.8,50.7,29.74,East,84,0.0,0.0,24,0.00,,,0.00,meteohub,2013-08-26 22:12:00,
2013-08-26 16:18:00,92.7,54.9,29.73,SSW,203,0.0,0.0,28,0.00,,,0.00,meteohub,2013-08-26 22:18:00,
2013-08-26 16:23:00,93.0,52.0,29.73,SSW,194,0.0,0.0,25,0.00,,,0.00,meteohub,2013-08-26 22:23:00,
2013-08-26 16:28:00,93.2,53.2,29.73,SSW,211,0.0,0.0,26,0.00,,,0.00,meteohub,2013-08-26 22:28:00,
2013-08-26 16:33:00,93.6,55.6,29.73,SW,232,0.0,0.0,28,0.00,,,0.00,meteohub,2013-08-26 22:33:00,
2013-08-26 16:38:00,93.2,55.2,29.73,East,92,0.0,0.0,28,0.00,,,0.00,meteohub,2013-08-26 22:38:00,
2013-08-26 16:43:00,93.2,54.3,29.73,ESE,106,0.0,0.0,27,0.00,,,0.00,meteohub,2013-08-26 22:43:00,
2013-08-26 16:48:00,92.8,54.0,29.73,ESE,106,0.0,0.0,27,0.00,,,0.00,meteohub,2013-08-26 22:48:00,
2013-08-26 16:54:00,92.1,53.4,29.73,East,88,0.0,0.0,27,0.00,,,0.00,meteohub,2013-08-26 22:54:00,
2013-08-26 16:59:00,91.8,54.0,29.73,East,89,0.0,0.0,28,0.00,,,0.00,meteohub,2013-08-26 22:59:00,
2013-08-26 17:04:00,91.0,53.4,29.73,SSW,211,0.0,0.0,28,0.00,,,0.00,meteohub,2013-08-26 23:04:00,
2013-08-26 17:09:00,90.7,54.1,29.73,SE,132,0.0,0.0,29,0.00,,,0.00,meteohub,2013-08-26 23:09:00,
2013-08-26 17:14:00,90.3,52.9,29.73,East,101,0.0,0.0,28,0.00,,,0.00,meteohub,2013-08-26 23:14:00,
2013-08-26 17:19:00,90.0,52.5,29.73,East,82,0.0,0.0,28,0.00,,,0.00,meteohub,2013-08-26 23:19:00,
2013-08-26 17:24:00,90.0,54.3,29.73,East,96,0.0,0.0,30,0.00,,,0.00,meteohub,2013-08-26 23:24:00,
2013-08-26 17:30:00,90.0,54.3,29.73,ESE,121,0.0,0.0,30,0.00,,,0.00,meteohub,2013-08-26 23:30:00,
2013-08-26 17:35:00,90.3,54.7,29.73,South,188,0.0,0.0,30,0.00,,,0.00,meteohub,2013-08-26 23:35:00,
2013-08-26 17:40:00,90.9,53.2,29.73,SE,130,0.0,0.0,28,0.00,,,0.00,meteohub,2013-08-26 23:40:00,
2013-08-26 17:45:00,90.7,53.1,29.73,East,80,0.0,0.0,28,0.00,,,0.00,meteohub,2013-08-26 23:45:00,
2013-08-26 17:50:00,90.3,53.8,29.72,East,92,0.0,0.0,29,0.00,,,0.00,meteohub,2013-08-26 23:50:00,
2013-08-26 17:55:00,90.5,54.0,29.72,ESE,111,0.0,0.0,29,0.00,,,0.00,meteohub,2013-08-26 23:55:00,
2013-08-26 18:00:00,90.9,54.1,29.72,SSW,194,0.0,0.0,29,0.00,,,0.00,meteohub,2013-08-27 00:00:00,
2013-08-26 18:06:00,90.9,54.1,29.72,SE,126,0.0,0.0,29,0.00,,,0.00,meteohub,2013-08-27 00:06:00,
2013-08-26 18:11:00,91.0,55.2,29.72,ESE,117,0.0,0.0,30,0.00,,,0.00,meteohub,2013-08-27 00:11:00,
2013-08-26 18:16:00,91.0,55.2,29.72,South,171,0.0,0.0,30,0.00,,,0.00,meteohub,2013-08-27 00:16:00,
2013-08-26 18:21:00,90.9,54.1,29.72,SW,215,0.0,0.0,29,0.00,,,0.00,meteohub,2013-08-27 00:21:00,
2013-08-26 18:26:00,90.9,53.2,29.72,East,98,0.0,0.0,28,0.00,,,0.00,meteohub,2013-08-27 00:26:00,
2013-08-26 18:31:00,90.7,53.1,29.71,ESE,106,0.0,0.0,28,0.00,,,0.00,meteohub,2013-08-27 00:31:00,
2013-08-26 18:37:00,90.3,53.8,29.71,SSE,147,0.0,0.0,29,0.00,,,0.00,meteohub,2013-08-27 00:37:00,
2013-08-26 18:42:00,90.3,53.8,29.71,ESE,105,0.0,0.0,29,0.00,,,0.00,meteohub,2013-08-27 00:42:00,
2013-08-26 18:47:00,90.3,53.8,29.71,ESE,112,0.0,0.0,29,0.00,,,0.00,meteohub,2013-08-27 00:47:00,
2013-08-26 18:52:00,90.1,53.6,29.71,East,98,0.0,0.0,29,0.00,,,0.00,meteohub,2013-08-27 00:52:00,
2013-08-26 18:57:00,90.1,53.6,29.71,ESE,113,0.0,0.0,29,0.00,,,0.00,meteohub,2013-08-27 00:57:00,
2013-08-26 19:02:00,89.8,53.2,29.71,East,93,0.0,0.0,29,0.00,,,0.00,meteohub,2013-08-27 01:02:00,
2013-08-26 19:07:00,89.4,53.1,29.71,ESE,111,0.0,0.0,29,0.00,,,0.00,meteohub,2013-08-27 01:07:00,
2013-08-26 19:12:00,89.2,53.8,29.71,East,95,0.0,0.0,30,0.00,,,0.00,meteohub,2013-08-27 01:12:00,
2013-08-26 19:17:00,89.1,53.6,29.71,ESE,117,0.0,0.0,30,0.00,,,0.00,meteohub,2013-08-27 01:17:00,
2013-08-26 19:22:00,88.9,53.4,29.71,East,84,0.0,0.0,30,0.00,,,0.00,meteohub,2013-08-27 01:22:00,
2013-08-26 19:27:00,88.7,53.2,29.71,ESE,121,0.0,0.0,30,0.00,,,0.00,meteohub,2013-08-27 01:27:00,
2013-08-26 19:32:00,88.5,53.1,29.71,ESE,107,0.0,0.0,30,0.00,,,0.00,meteohub,2013-08-27 01:32:00,
2013-08-26 19:37:00,88.2,52.9,29.71,East,92,0.0,0.0,30,0.00,,,0.00,meteohub,2013-08-27 01:37:00,
2013-08-26 19:42:00,88.2,52.9,29.71,ESE,113,0.0,0.0,30,0.00,,,0.00,meteohub,2013-08-27 01:42:00,
2013-08-26 19:48:00,88.0,53.6,29.71,East,93,0.0,0.0,31,0.00,,,0.00,meteohub,2013-08-27 01:48:00,
2013-08-26 19:53:00,87.6,53.2,29.71,East,98,0.0,0.0,31,0.00,,,0.00,meteohub,2013-08-27 01:53:00,
2013-08-26 19:58:00,87.4,53.1,29.71,East,91,0.0,0.0,31,0.00,,,0.00,meteohub,2013-08-27 01:58:00,
2013-08-26 20:03:00,87.3,52.9,29.71,East,97,0.0,0.0,31,0.00,,,0.00,meteohub,2013-08-27 02:03:00,
2013-08-26 20:08:00,87.1,52.7,29.71,East,91,0.0,0.0,31,0.00,,,0.00,meteohub,2013-08-27 02:08:00,
2013-08-26 20:13:00,86.7,52.5,29.72,East,86,0.0,0.0,31,0.00,,,0.00,meteohub,2013-08-27 02:13:00,
2013-08-26 20:18:00,86.5,52.3,29.72,ESE,112,0.0,0.0,31,0.00,,,0.00,meteohub,2013-08-27 02:18:00,
2013-08-26 20:24:00,86.5,51.4,29.72,East,83,0.0,0.0,30,0.00,,,0.00,meteohub,2013-08-27 02:24:00,
2013-08-26 20:29:00,86.4,52.2,29.72,East,93,0.0,0.0,31,0.00,,,0.00,meteohub,2013-08-27 02:29:00,
2013-08-26 20:34:00,86.5,52.3,29.72,East,93,0.0,0.0,31,0.00,,,0.00,meteohub,2013-08-27 02:34:00,
2013-08-26 20:39:00,86.4,52.2,29.72,SE,128,0.0,0.0,31,0.00,,,0.00,meteohub,2013-08-27 02:39:00,
2013-08-26 20:44:00,86.2,52.0,29.73,East,94,0.0,0.0,31,0.00,,,0.00,meteohub,2013-08-27 02:44:00,
2013-08-26 20:49:00,86.2,52.9,29.73,East,88,0.0,0.0,32,0.00,,,0.00,meteohub,2013-08-27 02:49:00,
2013-08-26 20:54:00,86.0,53.6,29.73,East,95,0.0,0.0,33,0.00,,,0.00,meteohub,2013-08-27 02:54:00,
2013-08-26 21:00:00,85.8,54.1,29.73,East,91,0.0,0.0,34,0.00,,,0.00,meteohub,2013-08-27 03:00:00,
2013-08-26 21:05:00,85.6,54.0,29.74,East,92,0.0,0.0,34,0.00,,,0.00,meteohub,2013-08-27 03:05:00,
2013-08-26 21:10:00,85.5,54.0,29.74,East,99,0.0,0.0,34,0.00,,,0.00,meteohub,2013-08-27 03:10:00,
2013-08-26 21:15:00,85.1,53.6,29.74,East,90,0.0,0.0,34,0.00,,,0.00,meteohub,2013-08-27 03:15:00,
2013-08-26 21:20:00,84.9,54.1,29.75,East,87,0.0,0.0,35,0.00,,,0.00,meteohub,2013-08-27 03:20:00,
2013-08-26 21:25:00,84.7,54.1,29.75,East,96,0.0,0.0,35,0.00,,,0.00,meteohub,2013-08-27 03:25:00,
2013-08-26 21:31:00,84.6,54.7,29.75,East,83,0.0,0.0,36,0.00,,,0.00,meteohub,2013-08-27 03:31:00,
2013-08-26 21:36:00,84.6,54.7,29.75,East,89,0.0,0.0,36,0.00,,,0.00,meteohub,2013-08-27 03:36:00,
2013-08-26 21:41:00,84.4,55.2,29.75,ESE,111,0.0,0.0,37,0.00,,,0.00,meteohub,2013-08-27 03:41:00,
2013-08-26 21:46:00,84.0,55.8,29.75,East,94,0.0,0.0,38,0.00,,,0.00,meteohub,2013-08-27 03:46:00,
2013-08-26 21:51:00,83.8,55.6,29.75,East,98,0.0,0.0,38,0.00,,,0.00,meteohub,2013-08-27 03:51:00,
2013-08-26 21:56:00,83.7,55.4,29.76,ESE,103,0.0,0.0,38,0.00,,,0.00,meteohub,2013-08-27 03:56:00,
2013-08-26 22:01:00,83.7,55.4,29.76,East,90,0.0,0.0,38,0.00,,,0.00,meteohub,2013-08-27 04:01:00,
2013-08-26 22:02:00,83.5,55.9,29.76,East,79,0.0,0.0,39,0.00,,,0.00,meteohub,2013-08-27 04:02:00,
2013-08-26 22:03:00,83.5,55.2,29.77,East,92,0.0,0.0,38,0.00,,,0.00,meteohub,2013-08-27 04:03:00,
2013-08-26 22:08:00,83.5,55.9,29.77,East,84,0.0,0.0,39,0.00,,,0.00,meteohub,2013-08-27 04:08:00,
2013-08-26 22:13:00,83.1,54.9,29.77,East,81,0.0,0.0,38,0.00,,,0.00,meteohub,2013-08-27 04:13:00,
2013-08-26 22:18:00,83.1,55.6,29.77,ESE,103,0.0,0.0,39,0.00,,,0.00,meteohub,2013-08-27 04:18:00,
2013-08-26 22:23:00,82.9,55.4,29.77,East,98,0.0,0.0,39,0.00,,,0.00,meteohub,2013-08-27 04:23:00,
2013-08-26 22:28:00,82.9,55.4,29.77,ENE,74,0.0,0.0,39,0.00,,,0.00,meteohub,2013-08-27 04:28:00,
2013-08-26 22:34:00,82.8,54.5,29.77,ESE,117,0.0,0.0,38,0.00,,,0.00,meteohub,2013-08-27 04:34:00,
2013-08-26 22:39:00,82.8,54.5,29.77,East,101,0.0,0.0,38,0.00,,,0.00,meteohub,2013-08-27 04:39:00,
2013-08-26 22:44:00,82.6,54.3,29.77,ENE,72,0.0,0.0,38,0.00,,,0.00,meteohub,2013-08-27 04:44:00,
2013-08-26 22:49:00,82.4,54.3,29.78,East,96,0.0,0.0,38,0.00,,,0.00,meteohub,2013-08-27 04:49:00,
2013-08-26 22:54:00,82.2,54.1,29.77,East,92,0.0,0.0,38,0.00,,,0.00,meteohub,2013-08-27 04:54:00,
2013-08-26 22:59:00,82.0,54.0,29.77,East,85,0.0,0.0,38,0.00,,,0.00,meteohub,2013-08-27 04:59:00,
2013-08-26 23:04:00,82.0,54.0,29.77,East,83,0.0,0.0,38,0.00,,,0.00,meteohub,2013-08-27 05:04:00,
2013-08-26 23:10:00,82.0,54.7,29.77,ESE,107,0.0,0.0,39,0.00,,,0.00,meteohub,2013-08-27 05:10:00,
2013-08-26 23:15:00,81.9,54.5,29.77,East,84,0.0,0.0,39,0.00,,,0.00,meteohub,2013-08-27 05:15:00,
2013-08-26 23:20:00,81.9,54.5,29.77,East,95,0.0,0.0,39,0.00,,,0.00,meteohub,2013-08-27 05:20:00,
2013-08-26 23:25:00,81.7,54.3,29.77,East,88,0.0,0.0,39,0.00,,,0.00,meteohub,2013-08-27 05:25:00,
2013-08-26 23:30:00,81.5,54.9,29.77,East,96,0.0,0.0,40,0.00,,,0.00,meteohub,2013-08-27 05:30:00,
2013-08-26 23:35:00,81.3,54.7,29.77,East,88,0.0,0.0,40,0.00,,,0.00,meteohub,2013-08-27 05:35:00,
2013-08-26 23:41:00,81.1,53.8,29.77,East,92,0.0,0.0,39,0.00,,,0.00,meteohub,2013-08-27 05:41:00,
2013-08-26 23:46:00,81.1,54.5,29.77,East,86,0.0,0.0,40,0.00,,,0.00,meteohub,2013-08-27 05:46:00,
2013-08-26 23:51:00,81.1,54.5,29.77,East,82,0.0,0.0,40,0.00,,,0.00,meteohub,2013-08-27 05:51:00,
2013-08-26 23:56:00,81.1,54.5,29.77,East,86,0.0,0.0,40,0.00,,,0.00,meteohub,2013-08-27 05:56:00,